Weather past 2 weeks in Amsterdam Island, French Southern Territories

Now
67 °F

Mild.


Feels Like: 67 °F
Forecast: 69 / 72 °F
Wind: 8 mph from East

Location: Martin De Vivies Ile Amsterdam

Current Time: Mar 1, 2015 at 6:29:22 AM

Latest Report: Mar 1, 2015 at 6:00 AM


Visibility: N/A

Pressure: 30.02 "Hg

Humidity: 92%

Dew point: 64 °F

Location of Amsterdam IslandLocation

Historic Weather in Amsterdam Island — Graph

°F

Amsterdam Island temperature yesterday

Maximum temperature yesterday: 71 °F (at 1:00 PM)
Minimum temperature yesterday: 62 °F (at 12:00 AM)
Average temperature yesterday: 66 °F

Past Weeks' High & Low Weather Summary

 TemperatureHumidityPressure
High74 °F (Feb 24, 1:00 PM)95% (Feb 20, 2:00 AM)30.32 "Hg (Feb 20, 2:00 AM)
Low57 °F (Feb 26, 1:00 AM)48% (Feb 27, 1:00 PM)30.02 "Hg (Mar 1, 4:00 AM)
Average65 °F76%30.19 "Hg
* Reported Feb 14 5:00 AM — Mar 1 5:00 AM, Amsterdam Island, Weather by CustomWeather, © 2015

Note: Actual official high and low records may vary slightly from our data, if they occured in-between our weather recording intervals... More about our weather records

Advertising

Amsterdam Island weather history for previous 24 hours

 ConditionsComfort  
Time TempWeatherWind HumidityBarometerVisibility
5:00 AM
Sun, Mar 1
66 °FMild.10 mph91%30.02 "HgN/A
4:00 AM66 °FMild.9 mph91%30.02 "HgN/A
3:00 AM66 °FMild.10 mph91%30.04 "HgN/A
1:00 AM66 °FMild.8 mph89%30.06 "HgN/A
12:00 AM66 °FMild.10 mph88%30.08 "HgN/A
11:00 PM
Sat, Feb 28
65 °FMild.9 mph86%30.08 "HgN/A
10:00 PM65 °FMild.10 mph85%30.08 "HgN/A
9:00 PM65 °FMild.9 mph82%30.09 "HgN/A
8:00 PM65 °FMild.14 mph80%30.11 "HgN/A
7:00 PM65 °FMild.12 mph76%30.11 "HgN/A
6:00 PM65 °FMild.8 mph76%30.11 "HgN/A
5:00 PM66 °FMild.10 mph71%30.12 "HgN/A
4:00 PM68 °FMild.10 mph64%30.13 "HgN/A
3:00 PM71 °FMild.8 mph55%30.13 "HgN/A
2:00 PM71 °FMild.8 mph56%30.15 "HgN/A
1:00 PM71 °FMild.9 mph55%30.17 "HgN/A
12:00 PM70 °FMild.9 mph56%30.18 "HgN/A
11:00 AM71 °FMild.9 mph57%30.18 "HgN/A
10:00 AM69 °FMild.9 mph53%30.19 "HgN/A
9:00 AM68 °FMild.9 mph53%30.21 "HgN/A
7:00 AM64 °FMild.7 mph62%30.22 "HgN/A
6:00 AM63 °FMild.7 mph62%30.21 "HgN/A
Weather by CustomWeather, © 2015

See weather overviewHow to use our weather pages